sat.trackr.live / text

‹ back to catalog

STARLINK-30308

NORAD 57742 · 2023-131L

PAYLOAD ACTIVE UNKNOWN

§ Identity

Operator
Country
US
Launch date
2023-09-01
Launch site
AFETR
Launch vehicle
Mass (kg)
RCS (m²)

Purposes: comms

External: N2YO · Heavens-Above · Gunter

§ Orbital elements

Epoch: 2026-09-20T09:26:40.485696Z

Period
94.27 min
Inclination
43.0020°
Eccentricity
0.0001258
Mean motion
15.27575025 rev/d
Perigee alt
482.2 km
Apogee alt
483.9 km
Semi-major
6,861.2 km
B*
-3.7232e-5
RAAN
152.8928°
Arg perigee
268.1504°
Mean anomaly
91.9203°
Rev number
16,970

§ Raw data

STARLINK-303081 57742U 23131L   26263.39352414 -.00001286  00000+0 -37232-4 0  99942 57742  43.0020 152.8928 0001258 268.1504  91.9203 15.27575025169709

JSON: /api/v1/satellites/57742 · /tle

For live sub-satellite position, see the globe view (requires WebGL).

§ Visibility from observer

Set your observer location to see the next 7 days of passes ≥ 10°. The values pass through the URL so the page stays shareable.

No JS? Fill the form by hand. The geolocation button needs JavaScript.